FREGAT R/B, 40083

Orbit data source: Space-Track

FREGAT R/B, 40083 is space debris originally from a launch on Thu, 10 Jul 2014 UTC launched from the French Guiana (FRGUI). Debris objects in space refer to the collection of defunct objects orbiting the Earth. Examples of debris include non-operational satellites, rocket bodies, and fragments generated from explosions, collisions, or faulty payload assembly.

Loading next visibility...
Identifier
40083, 2014-038E
Orbit
Active
Country
Flag of CISCIS
Related business
Manufacturer
Lavochkin
Mission
Spacecraft
Bus & Motor
FREGAT, Unknown motor
Mass
1,050 kg wet, 1,050 kg dry
Launch date (UTC)
2014-07-10 (11 years ago)
Launch vehicle
Unknown
Launch site
French Guiana (FRGUI)
Object type
Payload
Rocket body
Debris
Shape & HBR
Irr, 1.6 m
Radar Cross Section
11.055 m², Large (>1 m²)

Expand to show TLE details & history
Last TLE update: 12 hours ago

TLE from 12 hours ago
0 FREGAT R/B
1 40083U 14038E   25309.06930242 -.00000009  00000-0  00000-0 0  9996
2 40083   0.1331  49.1595 0012237 171.6086 139.1477  5.21123390215558
Epoch: 2025-11-05T01:39Z
TLE epoch observation values (Epoch: 2025-11-05T01:39:47.729Z)
Latitude
-0.0961°
Longitude
-69.49608°
Altitude
7,686.527 km
Speed
5.322 km/s
True Right ascension
00h 00m 00s
True Declination
0° 05' 45"
Sunlit
Object was in daylight at epoch
Visualization orbit readout
Latitude
Unknown
Longitude
Unknown
Altitude
Unknown
Speed
Unknown
Apparent Right ascension
Unknown
Apparent Declination
Unknown
Sunlit
N/A
Visualization observer readout
Local Sidereal Time
09:51:38
Azimuth
Unknown
Elevation
Unknown
Doppler factor
Unknown
Orbital elements
Apogee altitude
7,695.393 km
Perigee altitude
7,660.991 km
Semi-major axis
14,056.329 km
Eccentricity
0.00122
Inclination
0.1331°
RAAN
49.1595°
Arg. of periapsis
171.6086°
True anomaly
139.23932°
Mean anomaly
139.1477°
Eccentric anomaly
139.19352°
Mean motion
1.30237 °/min
Orbital period
276.42 mins
BSTAR
0
Loading maneuver chart data...
Computing Atmospheric mass density...
Loading historical data...
Loading historical data...
Loading historical data...
Loading historical data...
Loading historical data...
Loading historical data...
Loading historical data...
Other satellites on launch #38 in the year 2014 (2014-07-10 UTC)

Documentation

Showing up to 5 results
|